www.pogodaiklimat.ru

Погода и климат >> Архив погоды >> Япония >> Хирадо


ПОГОДА в Хирадо

  • Прогноз погоды в Хирадо
  • Монитор погоды в Хирадо

АРХИВ ПОГОДЫ в Хирадо

Время (UTC), дата Ветер
(напр.,м/с)
 
Видим.   Явления Облачность Т
(С)
Тd
(С)
f
(%)
Тe
(С)
Тes
(С)
Комфортность P
(гПа)
Po
(гПа)
Тmin
(С)
Tmax
(С)
R
(мм)
R24
(мм)
S
(см)
01 11.09 Ю 4 16 км н/о +29.5 +25.9 81 +44 +44 опасность
перегрева
1015.2 1008.6
02 11.09 Ю 4 17 км н/о +29.9 +26.3 81 +46 +46 опасность
перегрева
1014.7 1008.1
03 11.09 Ю 4 16 км н/о +28.9 +25.7 83 +43 +43 опасность
перегрева
1014.3 1007.7
04 11.09 Ю 4 14 км н/о +29.4 +25.8 81 +44 +44 опасность
перегрева
1013.8 1007.2
05 11.09 Ю 4 12 км н/о +28.5 +25.5 84 +42 +42 опасность
перегрева
1013.3 1006.7
06 11.09 Ю 4 15 км н/о +30.0 +25.5 77 +44 +44 опасность
перегрева
1012.9 1006.3
07 11.09 Ю 4 12 км н/о +28.5 +25.9 86 +43 +43 опасность
перегрева
1012.8 1006.2
08 11.09 Ю 3 10 км н/о +28.1 +25.7 87 +42 +42 опасность
перегрева
1013.0 1006.4
09 11.09 Ю 2 14 км н/о +27.4 +25.4 89 +40 +40 очень
душно
1013.3 1006.7
10 11.09 СЗ 2 12 км н/о +27.3 +25.5 90 +40 +40 очень
душно
1013.5 1006.8
11 11.09 СЗ 2 5000 м дымка н/о +26.9 +26.0 95 +40 +40 очень
душно
1014.0 1007.3
12 11.09 СВ 4 8000 м дымка н/о +26.2 +24.4 90 +37 +37 очень
душно
1014.3 1007.6 +30.3
13 11.09 СВ 4 12 км н/о +26.3 +24.2 88 +37 +37 очень
душно
1014.7 1008.0
14 11.09 СВ 4 10 км н/о +26.1 +23.8 87 +36 +36 очень
душно
1014.6 1007.9
15 11.09 СВ 3 9000 м дымка н/о +26.1 +24.2 89 +36 +36 очень
душно
1014.3 1007.6
16 11.09 СВ 3 10 км н/о +25.8 +24.0 90 +36 +36 очень
душно
1013.9 1007.2
17 11.09 СВ 2 9000 м дымка н/о +25.6 +24.0 91 +35 +35 очень
душно
1013.6 1006.9
18 11.09 СВ 2 11 км н/о +25.6 +24.0 91 +35 +35 очень
душно
1013.4 1006.7
19 11.09 СВ 3 9000 м дымка н/о +26.0 +23.9 88 +36 +36 очень
душно
1013.4 1006.7
20 11.09 СВ 3 9000 м дымка н/о +25.9 +24.1 90 +36 +36 очень
душно
1013.3 1006.6
21 11.09 С 3 11 км н/о +25.8 +23.9 89 +35 +35 очень
душно
1013.3 1006.6
23 11.09 СВ 4 17 км н/о +27.0 +23.7 82 +37 +37 очень
душно
1013.9 1007.2
00 12.09 СВ 4 18 км {дождь} н/о +27.5 +23.7 80 +38 +38 очень
душно
1014.1 1007.4 +25.5 0.0
01 12.09 СВ 4 18 км н/о +27.0 +23.3 80 +36 +36 очень
душно
1014.1 1007.4
02 12.09 С 6 20 км н/о +27.2 +22.8 77 +36 +36 очень
душно
1013.9 1007.2
03 12.09 СВ 6 20 км н/о +27.5 +22.0 72 +36 +36 очень
душно
1013.3 1006.7
04 12.09 С 6 19 км н/о +27.6 +22.3 73 +36 +36 очень
душно
1012.9 1006.3
05 12.09 С 5 17 км н/о +27.1 +22.5 76 +36 +36 очень
душно
1012.6 1005.9
06 12.09 С 6 19 км н/о +26.5 +22.6 79 +35 +35 очень
душно
1011.8 1005.1
07 12.09 СВ 5 20 км н/о +26.0 +21.7 77 +33 +33 очень
душно
1011.7 1005.0
08 12.09 С 6 20 км н/о +25.7 +21.6 78 +33 +33 очень
душно
1011.9 1005.2
09 12.09 СВ 6 19 км н/о +25.4 +21.5 79 +32 +32 очень
душно
1012.1 1005.4
10 12.09 СВ 6 20 км н/о +25.2 +20.9 77 +32 +32 очень
душно
1012.1 1005.4
12 12.09 СВ 6 20 км н/о +25.0 +20.5 76 +31 +31 очень
душно
1012.3 1005.6 +28.0
13 12.09 СВ 5 20 км н/о +25.2 +19.4 70 +30 +30 душно 1012.6 1005.9
15 12.09 СВ 4 20 км н/о +24.9 +20.4 76 +31 +31 очень
душно
1011.5 1004.8
16 12.09 С 5 20 км н/о +25.0 +20.7 77 +31 +31 очень
душно
1011.0 1004.3
18 12.09 СВ 5 20 км н/о +24.7 +21.0 80 +31 +31 очень
душно
1010.8 1004.1
19 12.09 СВ 4 20 км н/о +24.6 +21.1 81 +31 +31 очень
душно
1010.4 1003.7
20 12.09 СВ 4 20 км н/о +24.6 +20.7 79 +31 +31 очень
душно
1010.5 1003.8
21 12.09 СВ 3 20 км н/о +24.5 +20.8 80 +31 +31 очень
душно
1010.6 1003.9
22 12.09 СВ 4 20 км н/о +24.8 +21.3 81 +31 +31 очень
душно
1010.6 1003.9
23 12.09 С 4 20 км н/о +25.6 +21.5 78 +33 +33 очень
душно
1011.0 1004.3
01 13.09 С 5 20 км н/о +26.3 +21.1 73 +33 +33 очень
душно
1011.2 1004.5
02 13.09 С 5 20 км н/о +26.9 +21.2 71 +34 +34 очень
душно
1010.8 1004.2
03 13.09 СВ 5 20 км н/о +27.2 +21.3 70 +34 +34 очень
душно
1010.5 1003.9
04 13.09 СВ 5 20 км н/о +26.8 +20.9 70 +34 +34 очень
душно
1010.0 1003.4
05 13.09 С 5 20 км н/о +27.1 +20.5 67 +34 +34 очень
душно
1009.4 1002.8
06 13.09 С 5 20 км н/о +26.8 +20.9 70 +34 +34 очень
душно
1009.0 1002.4
08 13.09 С 5 20 км н/о +26.1 +20.4 71 +32 +32 очень
душно
1009.3 1002.6
09 13.09 СВ 5 20 км н/о +25.4 +20.4 74 +31 +31 очень
душно
1009.8 1003.1
10 13.09 С 4 20 км н/о +25.1 +20.6 76 +31 +31 очень
душно
1010.1 1003.4
11 13.09 СВ 5 20 км н/о +25.2 +21.1 78 +32 +32 очень
душно
1010.8 1004.1
13 13.09 СВ 4 18 км н/о +24.9 +21.8 83 +32 +32 очень
душно
1010.8 1004.1
14 13.09 СВ 4 17 км н/о +24.8 +22.5 87 +32 +32 очень
душно
1010.6 1003.9
15 13.09 С 3 16 км н/о +24.9 +22.8 88 +33 +33 очень
душно
1010.3 1003.6
16 13.09 С 3 16 км н/о +24.8 +22.7 88 +33 +33 очень
душно
1010.2 1003.5
17 13.09 СВ 3 18 км н/о +24.8 +22.7 88 +33 +33 очень
душно
1010.1 1003.4
18 13.09 СВ 2 18 км н/о +24.6 +22.5 88 +32 +32 очень
душно
1010.0 1003.3
19 13.09 С 2 18 км н/о +24.3 +22.4 89 +32 +32 очень
душно
1009.8 1003.1
21 13.09 С 1 13 км н/о +23.7 +22.9 95 +31 +31 очень
душно
1010.2 1003.5
00 14.09 СВ 2 18 км н/о +26.4 +23.3 83 +36 +36 очень
душно
1010.7 1004.0 +23.2
01 14.09 С 3 19 км н/о +27.3 +23.1 78 +37 +37 очень
душно
1010.4 1003.8
02 14.09 СВ 3 20 км н/о +27.2 +22.2 74 +35 +35 очень
душно
1010.1 1003.5
03 14.09 С 3 19 км н/о +28.1 +22.4 71 +37 +37 очень
душно
1009.7 1003.1
04 14.09 С 3 19 км н/о +29.2 +23.4 71 +40 +40 очень
душно
1009.2 1002.6
05 14.09 С 4 17 км н/о +28.3 +23.9 77 +39 +39 очень
душно
1008.8 1002.2
06 14.09 С 4 18 км н/о +27.1 +23.8 82 +37 +37 очень
душно
1008.5 1001.9
07 14.09 С 2 18 км н/о +28.2 +23.6 76 +38 +38 очень
душно
1008.5 1001.9
08 14.09 С 2 19 км н/о +27.1 +23.8 82 +37 +37 очень
душно
1008.5 1001.9
09 14.09 С 3 17 км н/о +26.1 +23.2 84 +35 +35 очень
душно
1008.6 1002.0
10 14.09 С 3 15 км н/о +25.6 +23.8 90 +35 +35 очень
душно
1009.3 1002.6
11 14.09 С 3 16 км н/о +25.4 +23.6 90 +35 +35 очень
душно
1009.7 1003.0
13 14.09 С 2 11 км н/о +25.1 +24.1 94 +35 +35 очень
душно
1010.3 1003.6
14 14.09 С 2 11 км н/о +25.0 +24.2 95 +34 +34 очень
душно
1010.1 1003.4
15 14.09 С 2 11 км н/о +25.1 +24.2 95 +35 +35 очень
душно
1009.9 1003.2
16 14.09 С 2 10 км н/о +25.2 +24.5 96 +35 +35 очень
душно
1009.6 1002.9
18 14.09 С 3 11 км н/о +25.0 +24.0 94 +34 +34 очень
душно
1008.9 1002.2
19 14.09 С 3 10 км н/о +25.0 +24.2 95 +34 +34 очень
душно
1008.5 1001.8
20 14.09 С 2 12 км н/о +24.8 +24.0 95 +34 +34 очень
душно
1008.3 1001.6
21 14.09 С 1 11 км н/о +24.6 +23.8 95 +33 +33 очень
душно
1008.8 1002.1
22 14.09 С 1 11 км н/о +25.0 +24.0 94 +34 +34 очень
душно
1008.8 1002.1
23 14.09 С 2 18 км н/о +26.0 +23.7 87 +35 +35 очень
душно
1009.0 1002.3
00 15.09 С 2 17 км н/о +26.7 +24.0 85 +37 +37 очень
душно
1009.2 1002.6 +24.4
01 15.09 С 3 17 км н/о +27.6 +24.5 83 +39 +39 очень
душно
1009.1 1002.5
02 15.09 С 3 20 км н/о +27.7 +23.9 80 +38 +38 очень
душно
1008.7 1002.1
03 15.09 С 4 20 км н/о +27.9 +23.9 79 +39 +39 очень
душно
1008.4 1001.8
04 15.09 СВ 5 20 км н/о +27.7 +23.7 79 +38 +38 очень
душно
1007.7 1001.1
05 15.09 С 3 20 км н/о +28.4 +23.5 75 +39 +39 очень
душно
1007.0 1000.4
06 15.09 С 4 20 км н/о +27.7 +23.5 78 +38 +38 очень
душно
1006.5 999.9
07 15.09 С 5 18 км н/о +26.8 +24.1 85 +37 +37 очень
душно
1006.6 1000.0
08 15.09 С 5 17 км н/о +25.8 +23.3 86 +35 +35 очень
душно
1006.8 1000.2
09 15.09 С 6 20 км н/о +25.6 +22.5 83 +34 +34 очень
душно
1007.0 1000.3
10 15.09 С 6 20 км н/о +25.4 +22.1 82 +33 +33 очень
душно
1007.3 1000.6
11 15.09 С 5 19 км н/о +25.3 +22.2 83 +33 +33 очень
душно
1007.8 1001.1
12 15.09 С 5 20 км н/о +25.2 +21.5 80 +32 +32 очень
душно
1008.2 1001.5 +28.9
13 15.09 С 5 20 км н/о +25.2 +20.9 77 +32 +32 очень
душно
1008.2 1001.5
14 15.09 С 5 20 км н/о +25.1 +21.0 78 +32 +32 очень
душно
1008.0 1001.3
16 15.09 С 5 18 км н/о +24.8 +21.7 83 +32 +32 очень
душно
1007.6 1000.9
17 15.09 С 5 20 км н/о +24.8 +21.3 81 +31 +31 очень
душно
1007.3 1000.6
18 15.09 С 5 20 км н/о +24.7 +21.2 81 +31 +31 очень
душно
1006.8 1000.1
19 15.09 С 6 20 км н/о +24.6 +21.1 81 +31 +31 очень
душно
1006.6 999.9
21 15.09 С 6 20 км н/о +24.4 +21.1 82 +31 +31 очень
душно
1006.7 1000.0
22 15.09 С 6 19 км н/о +24.4 +21.1 82 +31 +31 очень
душно
1006.8 1000.1
23 15.09 С 5 20 км н/о +24.9 +21.4 81 +32 +32 очень
душно
1007.3 1000.6
00 16.09 С 6 20 км н/о +25.1 +21.2 79 +32 +32 очень
душно
1007.8 1001.1 +24.2
03 16.09 С 6 20 км н/о +26.4 +21.2 73 +33 +33 очень
душно
1007.5 1000.9
04 16.09 С 6 20 км н/о +26.7 +20.8 70 +33 +33 очень
душно
1007.1 1000.5
05 16.09 С 6 20 км н/о +25.9 +20.2 71 +32 +32 очень
душно
1007.0 1000.4
07 16.09 С 6 20 км н/о +25.4 +20.2 73 +31 +31 очень
душно
1006.8 1000.1
08 16.09 С 7 20 км н/о +24.9 +19.3 71 +30 +30 душно 1007.1 1000.4
09 16.09 С 7 20 км н/о +24.2 +19.1 73 +29 +29 душно 1007.7 1001.0
10 16.09 С 6 20 км н/о +23.8 +18.7 73 +28 +28 душно 1007.8 1001.1
11 16.09 С 7 20 км н/о +23.9 +18.8 73 +29 +29 душно 1008.5 1001.8
12 16.09 С 7 20 км н/о +23.6 +18.3 72 +28 +28 душно 1008.5 1001.8 +27.1
13 16.09 С 8 20 км н/о +23.5 +17.0 67 +27 +27 душно 1008.8 1002.1
14 16.09 С 7 20 км н/о +23.6 +17.8 70 +28 +28 душно 1008.8 1002.1
15 16.09 С 7 20 км н/о +23.6 +17.4 68 +27 +27 жарко 1008.8 1002.1
16 16.09 С 6 20 км н/о +23.6 +16.4 64 +27 +27 жарко 1008.8 1002.1
17 16.09 С 6 20 км н/о +23.6 +18.0 71 +28 +28 душно 1008.5 1001.8
18 16.09 С 6 20 км н/о +23.8 +19.7 78 +29 +29 душно 1008.4 1001.7
19 16.09 С 7 17 км в посл. час дождь н/о +23.7 +20.5 82 +29 +29 душно 1008.6 1001.9
20 16.09 С 6 14 км слаб. дождь н/о +23.5 +20.5 83 +29 +29 душно 1008.8 1002.1
21 16.09 С 8 16 км слаб. дождь н/о +23.8 +20.7 83 +30 +30 очень
душно
1009.3 1002.6
22 16.09 С 6 11 км слаб. дождь н/о +23.5 +21.0 86 +30 +30 очень
душно
1009.8 1003.1
23 16.09 С 5 13 км в посл. час дождь н/о +23.0 +21.1 89 +31 +31 очень
душно
1010.7 1004.0
01 17.09 СВ 7 17 км в посл. час дождь н/о +25.2 +19.8 72 +31 +31 очень
душно
1011.4 1004.7
02 17.09 СВ 6 20 км н/о +25.9 +19.6 68 +31 +31 очень
душно
1011.2 1004.5
03 17.09 С 6 20 км {дождь} н/о +25.8 +19.7 69 +31 +31 очень
душно
1010.9 1004.2
04 17.09 С 6 20 км н/о +26.1 +20.0 69 +32 +32 очень
душно
1010.6 1003.9
05 17.09 С 7 20 км н/о +25.8 +19.5 68 +31 +31 очень
душно
1010.6 1003.9
06 17.09 С 7 н/о н/о +25.2 +20.0 73 +31 +31 очень
душно
1010.2 1003.5
07 17.09 С 6 н/о н/о +24.8 +19.6 73 +30 +30 душно 1010.0 1003.3
08 17.09 С 6 20 км н/о +24.8 +19.9 74 +30 +30 душно 1010.2 1003.5
09 17.09 С 7 20 км н/о +24.6 +20.1 76 +30 +30 очень
душно
1010.7 1004.0
11 17.09 С 6 19 км н/о +24.4 +20.3 78 +30 +30 очень
душно
1011.3 1004.6
12 17.09 С 5 19 км {дождь} н/о +24.4 +20.1 77 +30 +30 очень
душно
1011.8 1005.1 +26.4 0.0
13 17.09 С 5 19 км н/о +24.5 +20.4 78 +30 +30 очень
душно
1011.9 1005.2
14 17.09 С 4 18 км н/о +24.5 +20.8 80 +31 +31 очень
душно
1011.8 1005.1
15 17.09 СВ 5 19 км н/о +24.3 +20.4 79 +30 +30 очень
душно
1011.8 1005.1
16 17.09 СВ 4 20 км н/о +24.3 +20.0 77 +30 +30 очень
душно
1011.8 1005.1
17 17.09 С 5 20 км н/о +24.2 +20.1 78 +30 +30 очень
душно
1011.6 1004.9
18 17.09 С 5 20 км н/о +24.0 +20.1 79 +30 +30 очень
душно
1011.2 1004.5
20 17.09 СВ 4 20 км н/о +23.9 +20.0 79 +29 +29 душно 1011.1 1004.4
23 17.09 С 5 20 км н/о +24.8 +19.4 72 +30 +30 душно 1012.5 1005.8
00 18.09 СВ 5 20 км н/о +25.4 +19.3 69 +31 +31 очень
душно
1012.8 1006.1 +23.8

 

Местоположение метеостанции Хирадо (Япония): широта 33.37 долгота 129.55 высота над уровнем моря 59 м.

В архиве по умолчанию представлена погода в Хирадо за последнюю неделю. Архивные данные за месяц целиком и за предыдущие месяцы, начиная с января 2011 года, Вы можете получить, выбрав интересующий диапазон дат из раскрывающегося списка и нажав кнопку "Ввод!".


*Определитесь, кто Вы:
робот инопланетянин человек

Внимание! Время в таблицах - всемирное. Для получения местного времени необходимо прибавить поправку, которая равна 9 ч.

Смотрите также архив погоды в соседних городах и на ближайших метеорологических станциях:

Погода в Сасебо (Япония) (30 км)
Погода в Саге (Япония) (71 км)
Погода в Нагасаки (Япония) (77 км)
Погода в Фукуоке (Япония) (80 км)
Погода в Цусиме (Япония) (95 км)
Погода на Ундзэне (Япония) (97 км)
Погода на Фукуэ (Япония) (100 км)
Погода в Иидзуке (Япония) (110 км)
Погода в Кумамото (Япония) (123 км)
Погода в Хите (Япония) (128 км)

Пояснения к столбцам:

Ветер - указаны скорость ветра в м/с - средняя за 10 мин, порывы в срок и между сроками (в фигурных скобках) и направление, откуда дует ветер: С - северный, СВ - северо-восточный, В - восточный, ЮВ - юго-восточный, Ю - южный, ЮЗ - юго-западный, З - западный, СЗ - северо-западный.
Видимость - горизонтальная дальность видимости в метрах или километрах. При видимости от 1 до 10 км при отсутствии осадков обычно наблюдается дымка, при ухудшении видимости до 1 км и менее - туман. В сухую погоду видимость может ухудшаться дымом, пылью или мглою.
Явления - указаны атмосферные явления, наблюдавшиеся в срок или в последний час перед сроком; фигурными скобками обозначены явления, наблюдавшиеся между сроками (за 1-3 часа до срока); квадратными скобками обозначены град или гололедные отложения с указанием их диаметра в мм.
Облачность - указаны через наклонную черту общая и нижняя облачность в баллах и высота нижней границы облаков в метрах; квадратными скобками обозначены формы облаков: Ci - перистые, Cs - перисто-слоистые, Cc - перисто-кучевые, Ac - высококучевые, As - высокослоистые, Sc - слоисто-кучевые, Ns - слоисто-дождевые, Cu - кучевые, Cb - кучево-дождевые. Подробнее классификацию облаков см. в Атласе облаков (PDF).
T - Температура воздуха - температура, измеренная на высоте 2 м над землей.
Td - Температура точки росы - температура, при понижении до которой содержащийся в воздухе водяной пар достигнет насыщения.
f - Относительная влажность воздуха - влажноcть воздуха, измеренная на высоте 2 м над землей.
Te - Эффективная температура - температура, которую ощущает одетый по сезону человек в тени. Характеристика душности погоды. При расчете учитывается влияние влажности воздуха и скорости ветра на теплоощущения человека.
Tes - Эффективная температура на солнце - температура, которую ощущает человек, с поправкой на солнечный нагрев. Характеристика знойности погоды. Зависит от высоты солнца над горизонтом, облачности и скорости ветра. Ночью, в пасмурную погоду, а также при ветре 12 м/с и более поправка равна нулю.
P - Атмосферное давление - приведенное к уровню моря атмосферное давление.
Po - Атмосферное давление - измеренное на уровне метеостанции атмосферное давление.
Tmin - Минимальная температура - минимум температуры воздуха на высоте 2 м над землей.
Tmax - Максимальная температура - максимум температуры воздуха на высоте 2 м над землей.
R - Количество осадков - Количество выпавших осадков за период времени, мм. При наведении курсора мыши на число - период времени, за который выпало указанное количество осадков.
R24 - Количество осадков - Количество выпавших осадков за 24 часа, мм.
S - Снежный покров - Высота снежного покрова, см. При наведении курсора мыши на число - состояние снежного покрова и степень покрытия местности в баллах.